Zurück zum Katalog

FENGYUN 1C DEB

AktivPO
NORAD 30274·DEBRIS·🇨🇳 China

Gestartet May 10, 1999 von Taiyuan Satellite Launch Center

Loading…

Nächste Überflüge (nächste 24 Stunden)

TLE

AktuellSource: Space-Track

Epoche: Sep 14, 2026, 10:14 UTC

1 30274U 99025YK  26257.42645788  .00005245  00000-0  11924-2 0  9992
2 30274  99.3181  61.9317 0002876 100.7920 288.3790 14.56443791 22171

Verfolge FENGYUN 1C DEB in Echtzeit mit AllMySat

Download on the App Store